Danbury, CT

3:15 AM EDT on July 25, 2016 (GMT -0400)
Danbury Municipal

Weather History for KDXR - October, 2013

Change the Weather History Date:

Wednesday, October 9, 2013

  Actual Average Record
Temperature  
Mean Temperature 50 °F -  
Max Temperature 62 °F 65 °F 82 °F (1949)
Min Temperature 39 °F 44 °F 27 °F (1953)
Degree Days  
Heating Degree Days 14    
Moisture  
Dew Point 41 °F    
Average Humidity 71    
Maximum Humidity 93    
Minimum Humidity 47    
Precipitation  
Precipitation 0.00 in - - ()
Sea Level Pressure  
Sea Level Pressure 30.39 in    
Wind  
Wind Speed 3 mph (ENE)    
Max Wind Speed 13 mph    
Max Gust Speed 18 mph    
Visibility 10 miles    
Events      
Averages and records for this station are not official NWS values.
T = Trace of Precipitation, MM = Missing Value Source: NWS Daily Summary

Daily Weather History Graph

Daily Weather History Graph

Search for Another Location

Airport or City:

Trip Planner

Search our weather history database for the weather conditions in past years. The results will help you decide how hot, cold, wet, or windy it might be!

Date:

Astronomy

Oct. 09, 2013 Rise Set
Actual Time 6:59 AM EDT 6:22 PM EDT
Civil Twilight 6:31 AM EDT 6:49 PM EDT
Nautical Twilight 5:59 AM EDT 7:21 PM EDT
Astronomical Twilight 5:27 AM EDT 7:53 PM EDT
Moon 11:54 AM EDT (10/9) 9:51 PM EDT (10/9)
Length of Visible Light 12h 18m
Length of Day
11h 22m
Waxing Crescent, 25% of the Moon is Illuminated
Oct 9
Waxing Crescent
Oct 11
First Quarter
Oct 18
Full
Oct 26
Last Quarter
Nov 3
New

Hourly Weather History & Observations

Time (EDT) Temp. Windchill Dew Point Humidity Pressure Visibility Wind Dir Wind Speed Gust Speed Precip Events Conditions
12:53 AM 44.1 °F - 41.0 °F 89% 30.37 in 10.0 mi Calm Calm - N/A   Clear
1:53 AM 42.1 °F - 39.0 °F 89% 30.38 in 10.0 mi Calm Calm - N/A   Clear
2:53 AM 41.0 °F - 39.0 °F 93% 30.38 in 10.0 mi Calm Calm - N/A   Clear
3:53 AM 41.0 °F - 37.9 °F 89% 30.38 in 10.0 mi Calm Calm - N/A   Clear
4:53 AM 39.9 °F - 37.0 °F 89% 30.39 in 10.0 mi Calm Calm - N/A   Clear
5:53 AM 44.1 °F 41.5 °F 37.0 °F 76% 30.39 in 10.0 mi ENE 4.6 mph - N/A   Clear
6:53 AM 45.0 °F 41.8 °F 37.9 °F 76% 30.40 in 10.0 mi ENE 5.8 mph - N/A   Clear
7:53 AM 46.0 °F 43.1 °F 39.0 °F 76% 30.43 in 10.0 mi East 5.8 mph - N/A   Clear
8:53 AM 48.9 °F - 39.9 °F 71% 30.45 in 10.0 mi ENE 6.9 mph - N/A   Clear
9:53 AM 51.1 °F - 41.0 °F 68% 30.45 in 10.0 mi ENE 8.1 mph - N/A   Clear
10:53 AM 55.0 °F - 42.1 °F 62% 30.44 in 10.0 mi ENE 12.7 mph 18.4 mph N/A   Clear
11:53 AM 57.0 °F - 41.0 °F 55% 30.43 in 10.0 mi East 9.2 mph - N/A   Clear
12:53 PM 59.0 °F - 39.0 °F 48% 30.42 in 10.0 mi East 12.7 mph - N/A   Clear
1:53 PM 60.1 °F - 39.9 °F 47% 30.40 in 10.0 mi ENE 10.4 mph - N/A   Clear
2:53 PM 62.1 °F - 42.1 °F 48% 30.39 in 10.0 mi Variable 6.9 mph - N/A   Clear
3:53 PM 61.0 °F - 41.0 °F 48% 30.38 in 10.0 mi NE 8.1 mph - N/A   Clear
4:53 PM 60.1 °F - 42.1 °F 51% 30.37 in 10.0 mi ENE 6.9 mph - N/A   Clear
5:53 PM 59.0 °F - 42.1 °F 53% 30.35 in 10.0 mi NE 3.5 mph - N/A   Clear
6:53 PM 54.0 °F - 45.0 °F 72% 30.35 in 10.0 mi Calm Calm - N/A   Clear
7:53 PM 52.0 °F - 45.0 °F 77% 30.35 in 10.0 mi Calm Calm - N/A   Clear
8:53 PM 50.0 °F - 45.0 °F 83% 30.35 in 10.0 mi Calm Calm - N/A   Clear
9:53 PM 48.0 °F - 44.1 °F 86% 30.35 in 10.0 mi Calm Calm - N/A   Clear
10:53 PM 48.0 °F - 43.0 °F 83% 30.35 in 10.0 mi ENE 3.5 mph - N/A   Clear
11:53 PM 46.0 °F - 42.1 °F 86% 30.34 in 10.0 mi Calm Calm - N/A   Clear